| time (UTC) | temp F | wind direction | speed knots | gust knots | rain 1hr in | rain 24hr in | rain mn in | humidity % | barometer mb |
| 20260504020318 | 67 | 16 | 2.6 | 6.1 | 0.00 | 0.00 | 0.00 | 60 | 1015.3 |
| 20260504015317 | 67 | 4 | 3.5 | 10.4 | 0.00 | 0.00 | 0.00 | 60 | 1015.3 |
| 20260504014313 | 68 | 11 | 3.5 | 10.4 | 0.00 | 0.00 | 0.00 | 60 | 1015.4 |
| 20260504013311 | 67 | 7 | 3.5 | 9.6 | 0.00 | 0.00 | 0.00 | 61 | 1015.7 |
| 20260504012309 | 67 | 10 | 2.6 | 6.1 | 0.00 | 0.00 | 0.00 | 62 | 1015.5 |
| 20260504011306 | 67 | 7 | 2.6 | 6.1 | 0.00 | 0.00 | 0.00 | 63 | 1015.5 |
| 20260504010305 | 66 | 2 | 2.6 | 7.8 | 0.00 | 0.00 | 0.00 | 64 | 1015.6 |
| 20260504005304 | 66 | 5 | 3.5 | 7.8 | 0.00 | 0.00 | 0.00 | 65 | 1015.7 |
| 20260504004301 | 65 | 6 | 3.5 | 7.8 | 0.00 | 0.00 | 0.00 | 66 | 1015.5 |
| 20260504003259 | 65 | 12 | 1.7 | 6.1 | 0.00 | 0.00 | 0.00 | 67 | 1015.4 |
| 20260504002256 | 63 | 6 | 2.6 | 7.0 | 0.00 | 0.00 | 0.00 | 68 | 1015.5 |
| 20260504001254 | 62 | 7 | 2.6 | 10.4 | 0.00 | 0.00 | 0.00 | 69 | 1015.6 |
| 20260504000254 | 62 | 7 | 2.6 | 10.4 | 0.00 | 0.00 | 0.00 | 70 | 1015.6 |
| 20260503235251 | 61 | 1 | 3.5 | 6.1 | 0.00 | 0.00 | 0.00 | 70 | 1015.6 |
| 20260503234249 | 61 | 4 | 2.6 | 7.0 | 0.00 | 0.00 | 0.00 | 71 | 1015.7 |
| 20260503233246 | 60 | 1 | 2.6 | 7.8 | 0.00 | 0.00 | 0.00 | 72 | 1015.8 |
| 20260503232245 | 60 | 8 | 1.7 | 5.2 | 0.00 | 0.00 | 0.00 | 73 | 1015.8 |
| 20260503231243 | 59 | 1 | 1.7 | 7.8 | 0.00 | 0.00 | 0.00 | 74 | 1015.7 |
| 20260503230240 | 59 | 5 | 2.6 | 6.1 | 0.00 | 0.00 | 0.00 | 74 | 1015.8 |
| 20260503225239 | 58 | 4 | 1.7 | 5.2 | 0.00 | 0.00 | 0.00 | 75 | 1015.8 |
| 20260503222232 | 57 | 356 | 1.7 | 3.5 | 0.00 | 0.00 | 0.00 | 76 | 1016.1 |
| 20260503215226 | 56 | 4 | 1.7 | 3.5 | 0.00 | 0.00 | 0.00 | 77 | 1016.2 |
| 20260503213222 | 56 | 8 | 1.7 | 5.2 | 0.00 | 0.00 | 0.00 | 77 | 1015.8 |
| 20260503211219 | 56 | 1 | 1.7 | 3.5 | 0.00 | 0.00 | 0.00 | 77 | 1016.1 |
| 20260503210216 | 55 | 0 | 1.7 | 4.3 | 0.00 | 0.00 | 0.00 | 77 | 1016.0 |
| 20260503205214 | 55 | 6 | 1.7 | 4.3 | 0.00 | 0.00 | 0.00 | 77 | 1016.1 |
| 20260503203211 | 55 | 22 | 0.9 | 2.6 | 0.00 | 0.00 | 0.00 | 77 | 1015.7 |
| 20260503202209 | 55 | 41 | 0.9 | 1.7 | 0.00 | 0.00 | 0.00 | 77 | 1015.6 |
| 20260503201206 | 55 | 45 | 0.9 | 1.7 | 0.00 | 0.00 | 0.00 | 77 | 1015.7 |
| 20260503200205 | 55 | 30 | 0.9 | 1.7 | 0.00 | 0.00 | 0.00 | 77 | 1015.5 |
| 20260503194202 | 55 | 38 | 0.9 | 3.5 | 0.00 | 0.00 | 0.00 | 77 | 1015.6 |
| 20260503192157 | 55 | 6 | 0.9 | 3.5 | 0.00 | 0.00 | 0.00 | 77 | 1015.9 |
| 20260503191154 | 55 | 11 | 0.9 | 2.6 | 0.00 | 0.00 | 0.00 | 77 | 1016.0 |
| 20260503190152 | 55 | 22 | 0.9 | 2.6 | 0.00 | 0.00 | 0.00 | 77 | 1016.0 |
| 20260503185151 | 55 | 21 | 1.7 | 3.5 | 0.00 | 0.00 | 0.00 | 77 | 1015.9 |
| 20260503184148 | 55 | 11 | 0.9 | 2.6 | 0.00 | 0.00 | 0.00 | 77 | 1016.1 |
| 20260503183148 | 55 | 24 | 0.9 | 3.5 | 0.00 | 0.00 | 0.00 | 77 | 1015.9 |
| 20260503182146 | 55 | 55 | 0.9 | 3.5 | 0.00 | 0.00 | 0.00 | 76 | 1016.1 |
| 20260503180141 | 55 | 35 | 0.9 | 2.6 | 0.00 | 0.00 | 0.00 | 76 | 1016.3 |
| 20260503174138 | 55 | 17 | 0.9 | 4.3 | 0.00 | 0.00 | 0.00 | 76 | 1016.4 |
| 20260503173134 | 56 | 14 | 0.9 | 3.5 | 0.00 | 0.00 | 0.00 | 76 | 1016.5 |
| 20260503172133 | 56 | 14 | 0.9 | 1.7 | 0.00 | 0.00 | 0.00 | 76 | 1016.5 |
| 20260503171130 | 56 | 22 | 0.9 | 2.6 | 0.00 | 0.00 | 0.00 | 75 | 1016.5 |
| 20260503170129 | 56 | 24 | 0.9 | 4.3 | 0.00 | 0.00 | 0.00 | 75 | 1016.6 |
| 20260503160117 | 57 | 5 | 1.7 | 3.5 | 0.00 | 0.00 | 0.00 | 75 | 1016.8 |
| 20260503150107 | 58 | 12 | 0.9 | 2.6 | 0.00 | 0.00 | 0.00 | 75 | 1016.7 |